Tracking 18840 objects as of 19-November-2017
HD Live streaming from Space Station
objects crossing your sky now

FENGYUN 1C DEB

Track FENGYUN 1C DEB now!
10-day predictions


NORAD ID: 30222
Int'l Code: 1999-025WF
Perigee: 862.9 km
Apogee: 916.3 km
Inclination: 99.2 °
Period: 102.6 minutes
Semi major axis: 7260 km
RCS: 0.0447 m2 (small)
Launch date: May 10, 1999
Source: People's Republic of China (PRC)
Launch site: Taiyaun Space Center, China (TSC)

Note: This is SATELLITE DEBRIS
aabbcc
Your satellite tracking list
Your tracking list is empty




NASA's NSSDC Master Catalog

Two Line Element Set (TLE):
1 30222U 99025WF  17322.94083525 -.00000216 +00000-0 -10837-3 0  9998
2 30222 099.1814 335.8154 0036793 296.5379 125.3012 14.03287813555164
Source of the keplerian elements: AFSPC